Burley, ID

7:28 PM MST on December 15, 2019 (GMT -0700)
Burley Municipal

Weather History for KBYI - November, 2019

Change the Weather History Date:

Friday, November 22, 2019

  Actual Average Record
Temperature  
Mean Temperature 34 °F 33 °F  
Max Temperature 49 °F 42 °F 68 °F (2017)
Min Temperature 19 °F 24 °F -5 °F (1931)
Degree Days  
Heating Degree Days 31 32  
Month to date heating degree days 550 608  
Since 1 July heating degree days 1481 1416  
Cooling Degree Days 0 0  
Month to date cooling degree days 0 0  
Year to date cooling degree days 416 365  
Moisture  
Dew Point 20 °F    
Average Humidity 62    
Maximum Humidity 84    
Minimum Humidity 39    
Precipitation  
Precipitation 0.00 in 0.03 in 0.46 in (2014)
Month to date precipitation T 0.66  
Year to date precipitation 9.14 8.73  
Sea Level Pressure  
Sea Level Pressure 30.25 in    
Wind  
Wind Speed 3 mph (SW)    
Max Wind Speed 9 mph    
Max Gust Speed 12 mph    
Visibility 10 miles    
Events      
T = Trace of Precipitation, MM = Missing Value Source: NWS Daily Summary

Daily Weather History Graph

Daily Weather History Graph

Search for Another Location

Airport or City:

Astronomy

Nov. 22, 2019 Rise Set
Actual Time 7:34 AM MST 5:07 PM MST
Civil Twilight 7:03 AM MST 5:38 PM MST
Nautical Twilight 6:29 AM MST 6:12 PM MST
Astronomical Twilight 5:55 AM MST 6:46 PM MST
Moon 2:37 AM MST (11/22) 3:16 PM MST (11/22)
Length of Visible Light 10h 34m
Length of Day
9h 32m
Waning Crescent, 19% of the Moon is Illuminated
Nov 22
Waning Crescent
Nov 26
New
Dec 3
First Quarter
Dec 11
Full
Dec 18
Last Quarter

Hourly Weather History & Observations

Time (MST) Temp. Windchill Dew Point Humidity Pressure Visibility Wind Dir Wind Speed Gust Speed Precip Events Conditions
12:53 AM 24.1 °F 19.7 °F 16.0 °F 71% 30.14 in 10.0 mi South 3.5 mph - N/A   Clear
1:53 AM 24.1 °F 19.7 °F 16.0 °F 71% 30.14 in 10.0 mi South 3.5 mph - N/A   Clear
2:53 AM 23.0 °F - 15.1 °F 72% 30.16 in 10.0 mi Calm Calm - N/A   Clear
3:53 AM 23.0 °F - 16.0 °F 74% 30.17 in 10.0 mi Calm Calm - N/A   Clear
4:53 AM 23.0 °F - 18.0 °F 81% 30.18 in 10.0 mi Calm Calm - N/A   Clear
5:53 AM 19.9 °F - 14.0 °F 78% 30.21 in 10.0 mi Calm Calm - N/A   Clear
6:53 AM 19.9 °F 14.9 °F 15.1 °F 81% 30.23 in 10.0 mi North 3.5 mph - N/A   Clear
7:53 AM 21.9 °F - 17.1 °F 82% 30.26 in 10.0 mi Calm Calm - N/A   Overcast
8:30 AM 24.1 °F 19.7 °F 19.0 °F 81% 30.20 in 10.0 mi East 3.5 mph - N/A   Overcast
8:53 AM 24.1 °F - 19.0 °F 81% 30.28 in 10.0 mi Calm Calm - N/A   Mostly Cloudy
9:53 AM 32.0 °F - 23.0 °F 69% 30.28 in 10.0 mi Calm Calm - N/A   Clear
10:53 AM 39.0 °F - 25.0 °F 57% 30.27 in 10.0 mi Calm Calm - N/A   Clear
12:53 PM 46.9 °F - 26.1 °F 44% 30.22 in 10.0 mi North 3.5 mph - N/A   Clear
1:53 PM 46.9 °F - 25.0 °F 42% 30.22 in 10.0 mi West 4.6 mph - N/A   Clear
2:53 PM 48.0 °F - 24.1 °F 39% 30.21 in 10.0 mi WNW 5.8 mph - N/A   Clear
3:53 PM 46.9 °F - 24.1 °F 41% 30.23 in 10.0 mi WSW 9.2 mph - N/A   Clear
4:53 PM 44.1 °F 42.5 °F 23.0 °F 43% 30.26 in 10.0 mi West 3.5 mph - N/A   Clear
5:53 PM 39.9 °F 36.7 °F 23.0 °F 51% 30.30 in 10.0 mi West 4.6 mph - N/A   Clear
6:53 PM 32.0 °F 27.5 °F 19.9 °F 61% 30.32 in 10.0 mi SW 4.6 mph - N/A   Clear
7:53 PM 32.0 °F 28.7 °F 21.0 °F 64% 30.34 in 10.0 mi SW 3.5 mph - N/A   Clear
8:53 PM 27.0 °F 21.6 °F 19.0 °F 72% 30.35 in 10.0 mi SW 4.6 mph - N/A   Clear
9:53 PM 28.0 °F - 19.0 °F 69% 30.35 in 10.0 mi Calm Calm - N/A   Clear
10:53 PM 26.1 °F 21.9 °F 19.0 °F 75% 30.36 in 10.0 mi ESE 3.5 mph - N/A   Clear
11:53 PM 21.9 °F 17.2 °F 15.1 °F 75% 30.37 in 10.0 mi SSW 3.5 mph - N/A   Clear